Location: Bismarck
(46.7731°N, 100.8200°W)
Time: 06:09:41
(UTC-05:00)

Landsat 7 - Visible Passes

Search period start: 30 July 2016 00:00
Search period end: 09 August 2016 00:00
Orbit: 702 x 703 km, 98.2° (Epoch: 30 July)

Date Brightness Start Highest point End Pass type
(mag) Time Alt. Az. Time Alt. Az. Time Alt. Az.
30 Jul 4.9 00:02:46 24° SSW 00:05:00 37° W 00:09:26 10° NNW visible
30 Jul 3.8 23:07:13 25° SSE 23:09:55 69° ENE 23:14:41 10° N visible
31 Jul 6.1 00:46:06 12° WSW 00:48:10 15° W 00:50:56 10° NW visible
31 Jul 5.3 22:11:39 10° ESE 22:15:17 23° ENE 22:19:00 10° NNE visible
31 Jul 4.5 23:50:33 28° SSW 23:52:44 48° W 23:57:21 10° NNW visible
01 Aug 4.1 22:55:00 23° SE 22:57:45 53° ENE 23:02:23 10° N visible
02 Aug 5.8 00:33:53 16° WSW 00:35:48 20° W 00:39:16 10° NW visible
02 Aug 5.5 21:59:57 10° ESE 22:03:12 19° ENE 22:06:27 10° NNE visible
02 Aug 4.1 23:38:20 31° S 23:40:28 63° WSW 23:45:13 10° NNW visible
03 Aug 4.5 22:42:47 20° SE 22:45:36 41° ENE 22:50:04 10° N visible
04 Aug 5.5 00:21:41 20° SW 00:23:28 25° W 00:27:25 10° NW visible
04 Aug 5.8 21:48:31 10° E 21:51:08 15° ENE 21:53:45 10° NNE visible
04 Aug 3.8 23:26:07 34° S 23:28:14 81° WSW 23:33:02 10° NNW visible
05 Aug 4.8 22:30:34 17° ESE 22:33:27 32° ENE 22:37:41 10° N visible
06 Aug 5.1 00:09:28 25° SW 00:11:10 32° W 00:15:27 10° NNW visible
06 Aug 3.8 23:13:55 33° SSE 23:16:01 78° ENE 23:20:48 10° N visible
07 Aug 6.2 00:52:48 12° WSW 00:54:21 13° W 00:56:39 10° WNW visible
07 Aug 5.1 22:18:22 14° ESE 22:21:20 26° ENE 22:25:14 10° N visible
07 Aug 4.7 23:57:16 31° SW 23:58:52 42° W 00:03:24 10° NNW visible
08 Aug 3.9 23:01:44 31° SE 23:03:50 60° ENE 23:08:33 10° N visible
